Terug naar catalogus

STARLINK-38168

ActiefCommunicatieSSO
NORAD 100251·PAYLOAD·🇺🇸 United States

Gelanceerd Aug 8, 2026 vanaf Vandenberg Space Force Base

Loading…

Volgende Passages (komende 24 uur)

TLE

VersSource: Space-Track

Epoch: Sep 14, 2026, 13:23 UTC

1 A0251U 26181F   26257.55780019  .00246616  00000-0  16012-2 0  9990
2 A0251  97.2829 300.8388 0000966  54.4060 305.7295 15.75273547  7023

Volg STARLINK-38168 in realtime met AllMySat

Download on the App Store